Theta_e
288 288 288 288 288 288 286 286 286 286 286 286 286 287 287 288 289 288 291 291 291 291 292 292 292 292 291 290 289 289 289 289 289 290 290 290 290 290 290 289 289 290 292 291 290 291 291 291 292 293 294 293 293 292 293 292 293 293 294 296 296 296 297 299 299 299 301 300 301 302 306 311 313 317 314 310 308 309 314 320 321 321 321 321 321
288 287 287 288 287 285 285 285 286 284 285 285 285 286 286 287 286 287 288 290 291 290 290 291 291 290 290 290 288 287 287 286 286 288 288 289 289 289 289 289 288 288 290 290 289 289 289 290 291 291 293 292 292 292 292 292 291 291 292 293 296 296 296 298 298 297 296 297 295 297 302 305 310 315 306 306 305 307 315 316 319 319 320 320 321
286 287 287 287 286 285 284 284 284 285 284 284 285 285 286 286 286 287 288 288 288 290 289 289 290 290 290 289 289 287 287 287 287 287 288 287 287 288 288 288 288 287 287 289 289 288 288 289 289 291 292 292 291 290 290 290 290 290 290 291 292 294 294 297 295 295 293 297 295 297 294 297 302 308 304 302 302 308 310 314 316 314 313 318 320
284 285 286 287 287 286 285 284 285 285 285 285 285 285 285 286 285 285 286 287 287 288 289 289 290 289 290 289 288 287 286 287 286 286 286 286 285 286 286 286 286 285 285 286 288 287 287 287 288 289 291 291 290 289 289 289 289 289 290 291 291 288 290 291 293 293 295 295 290 293 295 299 295 297 295 296 304 305 306 311 307 307 309 316 313
284 284 285 286 286 286 286 286 285 284 285 284 284 284 284 284 285 285 285 286 286 288 287 288 288 288 288 287 288 287 286 285 284 283 284 285 284 284 284 285 285 284 284 284 286 286 286 286 286 287 289 289 289 288 287 288 288 289 290 290 290 288 288 289 289 292 294 298 295 294 294 293 292 291 291 293 301 298 304 302 301 303 309 306 305
285 284 285 286 286 286 286 286 285 285 285 285 284 284 284 284 285 285 285 285 285 286 287 287 286 286 285 284 283 283 282 281 280 280 281 281 282 284 284 284 284 284 283 283 284 286 285 285 285 286 287 288 288 287 287 287 287 287 289 289 289 289 288 286 286 290 293 295 298 296 291 289 287 287 289 287 294 298 298 297 298 302 302 298 299
286 285 285 285 285 285 285 285 286 286 286 285 285 284 284 284 284 284 284 284 285 285 286 286 285 285 285 284 284 283 281 281 282 282 281 281 282 282 282 283 283 283 282 282 283 284 284 284 284 285 286 287 287 286 285 285 285 286 288 288 288 289 288 285 285 286 290 293 292 291 289 288 287 285 286 288 286 291 293 294 296 298 296 296 297
283 284 284 285 285 285 285 286 286 286 286 286 284 284 284 284 283 283 283 284 284 284 284 286 284 284 284 284 285 283 281 280 280 281 281 282 281 281 281 281 282 282 281 281 282 283 283 283 283 284 284 285 286 284 284 284 285 285 286 288 287 288 287 285 285 286 286 288 288 287 286 286 286 288 289 288 287 284 286 292 294 293 293 293 295
283 282 283 285 285 285 286 285 286 286 285 284 283 282 283 283 283 283 283 283 283 283 283 283 284 283 283 283 282 282 282 280 280 280 280 280 279 280 280 280 281 281 281 280 280 281 282 282 282 282 283 284 284 284 284 284 283 283 284 285 285 285 286 286 285 285 287 286 284 284 285 285 286 287 288 288 285 284 284 287 286 289 290 291 293
283 283 283 283 283 283 283 283 283 283 284 284 283 283 282 282 282 282 282 282 282 282 282 282 282 283 281 281 281 280 280 279 279 278 278 279 278 278 279 279 279 280 280 280 279 280 281 281 281 281 282 283 284 283 283 283 283 283 284 284 284 284 285 284 285 285 288 286 284 284 283 285 285 285 285 286 286 286 283 282 284 284 284 287 290
283 283 283 283 284 284 283 283 283 284 283 283 283 282 282 281 281 280 281 282 282 281 281 280 281 281 281 281 280 279 278 278 277 277 277 277 277 277 278 278 278 278 279 279 279 279 280 280 280 280 281 282 282 282 282 282 282 282 283 283 283 283 283 283 284 286 286 284 283 283 283 284 283 282 283 284 284 282 281 281 283 284 283 282 285
282 282 282 283 284 284 285 284 284 284 284 282 282 282 281 280 280 280 280 280 281 281 280 280 280 280 280 280 280 279 278 277 276 276 276 276 276 276 277 277 277 278 278 277 277 278 279 278 279 279 280 280 280 281 281 281 282 282 282 282 282 282 283 283 283 284 284 283 282 283 284 286 285 284 284 284 283 282 282 281 281 282 282 283 286
282 282 283 283 283 283 282 283 282 282 282 282 281 281 281 280 279 279 279 280 280 280 280 279 279 279 279 279 280 280 278 277 276 276 276 276 275 275 275 275 276 276 276 276 276 276 278 277 277 277 278 279 279 279 280 280 280 281 281 281 281 281 282 282 282 284 282 281 281 283 285 285 285 286 285 284 284 284 283 280 281 282 279 281 283
282 283 283 283 283 283 282 282 282 281 281 281 281 280 280 279 279 278 278 279 279 279 279 279 279 278 279 279 279 279 278 277 276 276 276 275 276 275 275 275 275 275 275 275 276 276 277 277 277 277 278 278 278 278 278 279 279 280 280 280 279 281 282 282 282 282 282 282 282 283 284 285 285 286 285 284 283 282 281 280 280 280 281 280 282
283 282 282 282 283 283 282 282 282 281 281 281 281 280 279 278 278 277 277 278 278 278 278 278 278 278 278 278 278 279 277 276 276 277 275 275 275 275 275 275 274 275 275 276 276 276 276 276 276 276 277 277 277 277 278 278 278 279 279 279 279 280 281 282 281 281 281 281 281 283 284 284 284 285 285 284 284 283 283 282 280 278 278 280 279
282 282 282 282 283 283 282 282 282 281 281 281 280 280 279 278 277 277 277 277 278 278 278 278 278 278 277 277 277 277 278 276 276 276 275 275 274 274 274 274 274 275 275 275 275 275 275 275 275 275 276 276 276 276 276 277 277 277 277 278 278 280 279 280 280 280 280 280 281 283 283 283 284 284 284 284 284 284 284 283 282 281 278 275 278
281 282 282 282 282 282 283 282 282 281 281 280 280 280 278 277 277 276 276 277 277 277 277 277 277 277 276 276 276 276 275 275 274 274 274 275 274 274 274 274 274 275 275 275 274 275 275 275 274 275 275 275 275 275 276 276 276 276 276 276 277 278 278 278 279 279 279 281 282 282 282 283 283 283 283 284 284 284 284 283 283 281 280 277 275
282 282 282 282 282 282 282 282 282 281 281 280 280 280 279 278 277 276 276 276 276 277 277 277 277 276 276 275 275 275 275 275 274 274 274 273 273 273 274 273 273 274 275 275 274 274 274 275 274 274 274 275 274 275 275 275 275 275 276 276 277 277 277 278 278 279 279 280 281 281 282 282 283 282 283 283 283 283 283 282 282 283 282 279 278
281 281 281 281 281 281 281 281 282 281 281 280 280 280 279 278 277 276 276 276 276 277 277 276 277 276 276 275 275 275 274 274 274 274 274 273 273 273 273 273 273 274 274 273 273 273 273 273 273 273 274 273 274 274 274 274 274 274 275 275 276 277 277 277 278 279 279 280 279 279 281 281 281 281 281 282 282 283 282 283 283 283 283 282 280
281 281 281 281 281 280 281 281 280 280 280 280 279 279 278 277 277 276 276 275 275 275 276 275 275 275 275 275 274 274 274 274 274 273 273 272 272 272 272 272 272 273 273 273 272 272 273 272 272 273 273 273 273 273 273 273 273 274 274 274 275 276 276 276 277 278 279 279 279 279 279 279 280 280 281 282 283 283 283 282 282 281 280 281 280
281 281 280 280 280 280 280 280 280 280 280 279 278 277 277 277 276 275 275 275 275 275 275 275 275 275 275 274 273 273 273 273 273 273 272 272 272 273 272 272 272 272 272 272 272 272 272 272 272 273 272 272 272 272 273 273 273 273 273 274 274 275 276 276 278 277 278 278 278 278 278 279 280 280 281 282 282 281 280 280 279 278 278 278 278
280 280 280 279 279 278 279 279 279 278 278 277 277 277 277 276 276 276 275 276 275 276 275 275 275 275 274 274 273 273 273 273 272 273 272 272 272 272 272 272 271 272 272 272 272 272 272 272 272 272 272 272 272 272 272 272 272 272 272 274 274 274 275 276 277 276 277 278 278 277 277 278 280 280 281 281 280 279 278 277 276 277 276 276 277
279 279 279 278 278 277 277 277 277 277 277 277 277 276 276 276 276 276 275 275 275 275 275 275 274 274 273 273 273 273 272 272 272 272 272 272 272 271 272 271 271 271 272 272 272 271 271 271 271 271 271 271 271 271 272 272 272 272 272 272 274 275 276 276 276 276 276 277 277 277 277 278 279 280 280 279 279 277 277 276 275 276 275 275 276
278 278 278 278 277 276 276 276 276 276 276 276 276 276 276 275 275 274 274 274 274 274 274 274 274 273 273 273 273 272 272 272 271 272 271 272 271 271 272 271 271 271 271 271 272 271 271 271 271 271 271 271 271 271 271 271 271 272 272 272 274 276 276 276 276 276 276 277 276 276 277 278 279 279 279 278 277 276 275 275 275 275 276 276 277
277 277 277 277 276 275 276 276 276 276 276 276 276 275 275 275 275 275 274 274 274 274 274 274 273 273 273 272 272 272 271 271 271 271 271 271 271 270 271 271 271 270 271 271 271 271 271 270 270 270 270 270 270 271 271 271 271 272 272 273 275 276 276 276 276 276 277 276 276 276 277 277 278 278 277 276 276 275 275 274 274 275 276 277 277
277 277 276 276 276 276 275 276 276 276 276 276 276 275 275 275 274 275 274 274 273 273 273 273 273 273 273 272 272 272 271 271 272 271 271 271 271 270 270 270 271 270 270 270 270 270 271 270 270 270 270 270 270 270 270 270 271 272 273 274 276 276 276 276 276 276 276 277 276 276 276 277 277 276 276 276 276 275 274 274 275 276 276 276 276
276 277 276 276 275 275 275 276 276 276 276 276 275 275 275 274 274 274 274 274 273 273 273 273 273 273 273 272 272 272 272 271 271 271 271 271 271 270 270 270 270 270 270 270 270 270 270 270 270 270 270 270 270 270 270 270 271 273 274 275 275 275 275 276 276 276 276 277 276 276 275 276 276 276 276 276 275 274 274 274 276 275 275 275 275
276 276 276 275 275 275 275 275 275 276 276 276 276 275 275 274 274 274 273 274 274 273 273 273 273 273 272 272 272 272 271 271 271 271 271 271 270 270 270 270 270 269 269 269 269 269 269 270 270 269 270 270 270 270 270 271 272 274 275 275 275 275 275 275 275 276 276 276 275 275 274 275 276 277 277 276 275 274 274 275 275 275 275 274 274
275 276 276 275 275 275 275 275 275 275 275 275 275 275 275 274 274 274 273 273 273 273 272 272 272 272 273 272 272 272 271 271 271 271 271 271 270 269 269 269 269 269 269 269 269 269 269 269 269 269 269 270 270 270 270 272 273 274 275 275 275 275 275 275 275 275 275 275 274 274 274 275 277 279 279 278 277 277 275 274 274 275 274 274 274
275 276 276 276 276 275 275 275 275 275 275 275 275 275 274 274 273 273 273 273 273 272 272 272 272 272 272 272 272 271 271 270 271 270 270 270 269 269 269 269 269 269 269 269 269 268 268 268 268 268 268 269 269 269 272 275 276 275 275 275 275 275 275 274 274 274 274 273 273 274 275 277 278 278 277 277 277 277 277 277 275 275 274 274 274
276 276 276 276 276 275 275 275 275 275 275 275 275 275 275 274 273 273 273 272 272 272 272 272 272 272 272 272 271 271 270 270 270 270 270 269 269 269 268 268 268 268 268 268 268 268 268 268 268 267 267 268 268 269 273 275 276 277 276 274 274 274 274 274 274 273 272 272 273 274 275 276 277 276 275 276 276 276 277 277 278 278 278 275 274
275 276 276 276 276 275 275 275 275 275 276 275 275 275 274 274 273 273 272 272 272 272 272 272 272 272 272 271 271 270 270 270 270 269 269 269 268 268 268 268 267 267 267 268 267 267 267 267 267 267 267 267 268 271 273 275 276 277 277 275 274 274 274 273 273 272 272 272 272 273 274 275 275 275 274 273 274 275 276 277 278 278 278 278 278
276 276 276 276 276 276 276 275 275 275 276 276 276 275 274 274 273 273 272 272 272 272 271 271 272 272 272 271 271 270 269 269 269 269 269 268 268 268 267 267 267 267 267 267 267 267 267 267 267 266 266 267 267 270 273 275 275 276 276 276 274 273 272 272 272 272 272 271 272 272 272 273 274 275 275 272 272 273 275 277 277 277 277 277 278
277 277 276 276 277 276 276 276 276 276 276 276 276 275 275 275 274 273 272 272 271 271 271 271 271 271 271 271 270 270 269 269 269 269 268 268 268 267 267 267 267 267 266 266 266 266 266 266 266 266 266 266 267 270 273 274 275 275 276 276 273 272 272 272 272 272 271 271 271 271 271 272 273 273 273 272 272 273 273 274 274 274 274 275 277
277 276 276 276 276 276 276 276 276 276 276 275 275 275 275 274 273 272 272 271 271 270 270 271 271 271 271 271 270 269 269 268 269 268 268 267 267 267 267 267 266 266 265 265 265 265 266 266 266 266 265 265 266 270 272 273 274 275 276 275 272 272 271 271 271 272 272 271 271 272 271 271 271 271 272 273 273 273 273 274 273 273 273 273 274
277 277 277 277 276 276 276 276 277 276 275 275 275 275 274 273 273 273 272 271 270 270 270 270 270 271 271 270 269 269 268 268 268 268 267 267 267 267 266 266 265 265 265 265 265 266 265 265 265 265 265 265 266 270 271 273 274 275 275 272 271 271 270 271 271 271 271 272 272 272 271 271 271 271 273 276 275 274 274 273 272 272 272 274 273
279 278 278 278 278 277 277 277 276 276 275 275 275 274 274 273 272 272 272 271 271 270 270 270 270 270 270 270 269 268 267 267 267 267 266 266 266 265 265 265 264 264 264 264 264 264 264 264 264 264 264 264 265 268 271 272 273 274 273 270 270 270 270 270 270 270 271 271 272 272 271 271 271 271 274 276 277 276 273 272 271 272 272 271 270
279 279 278 278 277 277 277 276 276 275 275 275 275 274 273 272 272 272 271 271 270 270 270 270 270 270 269 269 269 268 267 267 266 266 266 266 265 265 264 264 263 263 263 263 263 263 263 263 263 263 264 264 264 267 270 271 272 273 272 270 270 269 269 269 269 270 271 271 272 273 272 271 271 271 275 276 277 275 272 272 271 270 269 268 268
279 278 277 277 277 277 276 276 275 275 275 275 274 274 273 272 272 271 271 270 270 270 270 269 269 269 269 269 268 267 267 266 266 266 265 265 264 264 263 263 263 263 263 263 262 262 262 263 263 263 264 264 264 265 268 270 271 272 271 270 270 269 268 269 269 269 270 271 271 272 272 273 272 273 276 276 276 275 272 271 270 268 267 266 268
279 278 278 278 277 276 275 275 275 275 275 274 274 273 272 272 271 271 270 270 270 271 270 270 269 269 268 268 267 267 267 266 266 265 265 264 264 263 263 263 263 262 262 262 262 261 261 262 262 262 263 263 263 263 265 269 271 272 272 270 269 268 267 268 269 269 269 270 270 270 271 273 274 275 275 275 276 275 272 271 269 267 266 266 269
278 278 279 276 276 276 275 275 276 276 275 274 273 273 272 272 271 270 270 271 271 271 270 269 269 268 268 267 267 267 266 266 265 265 264 263 263 263 262 262 261 260 261 260 261 260 260 261 261 262 262 262 263 263 264 269 270 271 272 271 269 268 269 268 268 268 268 268 268 269 270 272 274 274 275 275 275 274 274 270 267 267 268 270 272
279 278 277 276 275 275 275 275 276 275 274 274 273 272 272 272 271 270 271 272 271 270 269 269 268 268 267 267 266 266 265 265 264 264 263 262 262 261 261 260 259 258 259 259 259 258 259 260 260 261 261 261 263 264 263 267 269 271 272 272 269 269 270 269 268 268 268 268 268 269 269 271 273 274 275 274 274 274 273 268 267 272 273 273 269
276 276 276 276 275 275 275 275 275 274 274 273 273 272 272 271 271 271 272 271 270 270 269 268 268 267 266 266 266 264 264 264 261 261 260 259 260 258 257 257 258 257 257 257 258 258 258 258 259 259 260 261 262 263 265 265 268 270 271 272 272 271 272 270 268 267 267 268 269 268 269 271 273 274 273 273 273 272 269 267 271 272 271 270 266
276 277 276 275 275 275 275 275 274 274 273 273 273 272 272 271 271 273 271 270 269 269 268 268 266 266 266 265 264 262 262 261 260 259 259 257 257 257 256 255 256 256 256 256 257 256 257 256 257 258 259 261 262 263 264 266 267 270 271 272 272 272 272 270 269 268 268 268 268 268 269 273 273 272 272 271 270 269 268 269 270 269 269 265 259
275 275 275 275 275 274 274 274 273 273 273 273 273 273 271 270 272 271 270 269 269 267 267 266 265 265 264 263 261 261 260 258 258 258 256 257 255 255 255 255 255 255 256 255 256 255 255 255 256 257 258 260 262 263 263 265 267 268 270 271 271 272 272 272 269 268 268 268 270 273 273 271 270 270 269 268 265 265 267 267 267 267 262 258 256
275 274 274 274 275 274 273 273 272 272 272 272 272 273 271 272 272 270 270 269 267 266 265 265 264 263 262 260 259 258 257 257 257 256 254 254 254 253 253 255 254 254 253 253 254 254 254 255 256 258 259 261 262 263 264 265 266 267 267 269 270 271 270 271 270 269 270 272 272 270 268 268 266 265 263 261 261 260 264 264 263 261 258 256 255
274 274 273 273 273 273 272 272 271 270 271 271 271 272 273 272 270 270 269 268 266 265 264 263 262 262 259 259 260 258 257 256 255 256 255 254 255 254 254 253 253 253 252 252 253 253 254 254 256 259 260 261 262 263 264 265 266 266 266 266 266 267 269 269 268 268 269 267 264 264 264 265 263 264 263 262 260 260 257 257 257 257 256 255 255
275 274 273 273 273 273 272 272 272 271 270 270 270 271 271 270 268 268 267 266 265 264 264 263 262 261 259 259 259 259 259 255 256 255 254 254 253 253 253 254 253 253 251 252 252 254 255 257 258 260 260 262 263 264 264 265 265 265 266 267 268 268 267 267 267 267 266 262 262 261 260 257 256 256 255 254 254 253 254 255 255 255 255 256 257
273 272 272 273 272 272 272 272 272 271 270 270 270 270 269 268 268 266 266 265 264 262 263 261 260 259 259 258 258 257 257 256 255 254 254 255 252 253 253 253 255 254 254 254 254 256 258 260 261 261 262 262 264 264 265 268 268 270 268 267 267 267 267 267 268 271 263 260 258 256 254 254 253 254 253 253 253 253 253 254 253 253 254 254 254
273 273 272 273 272 273 272 271 272 271 270 269 269 269 268 268 266 265 265 266 263 262 261 261 260 259 258 257 257 255 255 255 254 254 252 253 258 260 259 257 256 261 263 265 266 262 262 264 264 265 266 264 263 265 270 271 270 270 271 271 270 271 271 269 270 270 262 257 254 253 253 252 252 252 252 252 252 252 252 252 253 255 254 253 253
272 271 270 271 272 272 272 271 271 270 269 269 269 268 266 266 266 265 266 266 263 262 261 260 259 259 258 257 255 254 253 252 251 253 251 252 253 255 262 264 265 264 264 266 267 268 268 269 267 265 266 269 269 269 269 269 270 270 270 270 270 270 270 270 270 264 258 255 252 252 252 251 252 251 251 251 252 252 252 252 252 252 252 253 253
Wind_Speed
6 8 12 9 9 9 11 11 11 14 14 15 13 14 15 12 13 15 10 11 10 8 8 8 8 7 9 10 10 9 9 10 11 11 12 12 13 13 13 12 13 12 12 12 13 12 10 9 10 10 10 10 10 11 11 11 12 11 10 9 13 12 10 12 13 11 9 12 13 10 8 5 9 4 6 10 12 12 8 8 8 7 7 7 8
10 11 11 11 11 12 11 11 13 15 15 14 15 14 13 13 14 11 9 10 10 9 7 9 9 8 7 8 8 8 10 10 11 10 11 10 12 12 12 12 13 14 12 12 13 12 11 10 10 10 10 10 9 9 10 11 12 12 11 9 9 11 9 12 13 14 9 12 12 12 8 7 7 3 12 14 15 11 8 9 7 8 9 9 8
11 11 11 10 12 12 12 12 12 13 13 14 12 14 14 13 12 10 10 10 11 11 9 9 8 9 9 8 7 9 10 10 10 10 10 10 12 13 12 12 13 13 14 12 11 12 12 10 10 10 10 10 10 11 12 13 12 13 14 11 11 8 7 8 12 13 7 10 7 5 8 13 6 3 8 13 14 8 9 9 9 10 13 10 8
11 11 10 10 10 10 11 12 11 11 11 12 12 13 11 12 12 12 11 11 10 11 10 9 10 9 9 9 10 10 8 8 10 11 11 12 13 13 13 13 13 13 14 13 11 12 12 11 10 10 10 11 11 11 12 13 13 13 13 12 11 11 11 9 10 12 9 12 11 7 7 6 13 7 17 15 10 11 13 9 11 12 12 9 10
9 10 10 9 10 11 11 10 10 12 12 12 12 12 10 12 12 12 11 11 10 11 11 8 7 7 7 8 7 8 8 7 8 11 12 11 10 12 13 13 13 13 13 13 11 12 11 11 10 10 9 11 10 11 12 12 12 11 13 11 13 11 11 10 9 11 11 9 7 8 5 5 7 13 17 10 7 15 10 13 13 14 11 12 13
8 9 8 8 9 9 10 11 12 10 11 10 11 11 11 11 11 11 10 10 10 10 9 8 8 8 6 5 8 9 11 12 14 12 11 11 11 9 10 11 12 12 12 12 11 11 11 12 11 11 10 11 11 10 10 10 12 13 12 11 12 12 9 9 10 10 9 8 9 10 7 5 10 12 9 11 11 8 10 10 13 12 12 15 13
7 8 8 9 9 9 10 10 9 9 8 9 10 11 12 10 11 11 9 9 9 10 10 8 9 10 12 12 11 10 9 9 8 8 8 8 8 10 9 10 11 13 12 12 12 11 11 11 11 11 10 10 10 10 11 12 11 11 11 11 11 10 10 9 11 11 7 7 10 9 8 7 7 8 7 12 16 6 4 13 12 11 15 14 14
6 7 8 8 8 8 9 8 8 8 8 8 9 10 11 11 11 11 9 10 10 10 11 11 11 10 11 11 10 10 10 9 8 7 7 7 8 9 8 10 11 11 12 12 11 11 11 11 11 10 10 10 11 11 11 11 10 10 11 10 10 9 10 10 10 10 11 9 10 8 8 6 6 6 6 7 10 16 18 9 10 13 13 11 10
6 6 6 6 7 7 7 7 7 8 8 8 9 9 9 10 10 10 11 11 11 13 13 12 12 11 10 9 10 9 9 8 7 7 7 7 8 8 8 9 9 10 10 11 11 11 11 10 10 10 10 10 11 10 10 10 11 11 11 10 11 10 9 9 8 9 9 11 12 11 10 8 7 5 6 7 9 13 14 10 17 18 15 8 8
5 6 6 6 7 7 7 8 9 8 8 8 9 8 9 9 10 11 12 10 11 12 12 12 12 10 11 10 11 9 8 7 7 7 7 7 8 8 8 7 8 8 9 10 11 10 10 10 10 11 10 10 10 9 9 10 10 10 10 10 10 10 8 9 9 8 8 9 9 9 11 11 8 6 6 11 9 6 11 16 11 16 19 17 15
5 4 5 6 6 7 6 8 7 7 7 8 8 9 8 8 9 11 11 10 11 12 12 13 11 10 10 10 11 10 9 8 8 8 7 8 8 8 8 7 7 7 8 9 10 10 10 11 10 10 10 10 10 9 10 9 9 9 8 9 10 10 8 9 8 7 7 8 9 8 8 8 8 10 12 12 11 11 15 13 12 9 13 18 14
4 3 4 5 6 4 5 6 6 6 7 7 7 7 8 8 8 11 11 11 10 11 11 11 10 10 10 9 10 10 9 8 9 9 9 9 9 8 7 7 8 7 8 8 10 11 10 9 10 9 9 9 10 9 9 9 8 8 7 8 8 8 8 8 7 6 9 7 8 7 6 7 7 8 9 10 11 11 12 16 14 14 13 9 10
4 5 5 5 4 5 4 5 6 6 6 7 7 6 7 8 9 10 11 9 9 9 11 10 10 10 9 9 9 9 9 9 9 9 9 8 8 8 9 8 8 9 10 10 10 12 10 10 10 10 9 9 9 9 9 9 9 8 8 8 8 8 8 8 7 7 9 8 8 7 6 7 7 7 8 9 10 10 11 14 14 12 14 16 9
5 5 4 5 5 5 5 5 5 5 6 6 6 7 6 7 7 9 9 7 7 8 9 10 11 10 9 9 8 8 9 9 8 9 8 7 7 8 8 8 8 8 8 9 9 9 9 9 9 9 9 9 9 9 9 9 9 8 8 8 9 7 7 8 7 8 7 8 7 7 8 8 7 8 8 9 10 11 11 12 16 15 13 15 14
6 6 6 6 6 6 5 5 5 5 5 5 5 6 6 6 6 7 8 7 8 8 8 10 9 10 9 9 8 7 8 8 8 8 8 8 7 7 7 7 7 7 7 7 8 8 8 8 9 8 8 8 8 8 8 8 8 7 7 8 8 7 8 7 7 8 8 9 8 7 8 8 8 8 8 9 9 9 10 12 13 18 19 12 12
7 7 7 7 6 6 6 5 5 5 5 4 5 4 5 5 5 6 7 7 7 7 8 8 8 8 9 9 9 9 8 7 7 7 6 6 6 6 6 6 6 6 6 6 7 7 8 8 8 7 7 7 7 8 7 7 8 7 7 7 8 7 8 9 8 8 8 9 7 7 7 7 8 8 8 9 9 9 9 10 11 12 14 19 16
9 8 7 8 6 6 6 6 6 5 5 5 5 4 4 4 5 6 6 6 6 7 6 6 7 8 8 8 8 8 7 8 7 7 7 5 6 6 6 6 6 6 6 6 7 7 7 8 8 9 8 8 8 8 8 8 8 7 7 7 7 8 8 8 8 7 8 7 6 9 8 8 8 8 8 9 9 9 9 9 10 11 12 15 16
9 7 7 7 7 7 7 6 6 6 6 6 5 4 4 4 5 6 6 7 6 6 7 6 6 7 8 9 9 8 8 8 8 7 7 7 7 7 6 7 8 6 7 7 7 8 8 9 8 8 8 8 8 8 8 8 7 7 7 7 7 7 7 7 7 6 7 6 7 7 8 8 8 9 9 10 9 10 10 10 10 10 10 13 14
9 9 8 7 6 6 7 7 6 6 6 6 5 5 4 5 5 5 6 5 5 5 5 6 7 6 6 7 7 7 6 6 5 6 6 7 7 6 6 5 5 6 6 7 7 7 7 7 6 7 7 7 7 7 7 7 7 6 6 6 6 6 6 6 6 6 6 7 7 7 7 7 9 9 10 8 8 8 10 11 10 10 11 12 14
9 9 8 8 7 7 8 8 8 7 7 5 5 4 5 3 4 4 4 4 5 6 5 6 5 6 6 5 5 5 5 5 5 5 6 6 5 5 5 6 6 5 5 6 6 7 8 8 8 8 8 8 8 8 8 8 7 7 6 6 7 7 7 6 6 6 5 6 7 7 8 8 8 8 8 8 9 9 9 9 9 10 11 11 13
9 9 9 8 8 7 7 7 6 5 5 5 4 5 4 3 3 3 5 4 5 4 5 5 5 6 7 7 6 6 6 5 5 5 6 6 6 6 5 5 4 6 7 7 7 8 8 7 8 8 8 8 8 8 8 7 7 7 7 7 7 8 7 6 6 7 7 7 7 8 8 8 9 9 8 8 8 9 10 9 10 11 12 13 13
9 9 8 9 7 7 6 6 5 6 6 5 4 4 4 3 3 3 4 4 5 5 5 5 5 6 6 5 5 4 4 4 4 4 5 4 5 5 4 5 5 5 4 5 6 5 6 6 6 7 7 7 7 7 7 7 7 7 7 6 7 7 6 6 7 7 8 7 8 9 8 9 9 10 10 8 8 8 9 9 10 10 12 12 12
9 9 9 8 8 7 8 8 8 8 7 6 5 4 4 4 3 2 4 3 3 4 4 5 5 5 4 3 3 3 3 3 4 3 4 3 3 3 3 4 4 4 4 3 4 5 6 6 6 7 7 7 8 8 7 7 7 8 8 7 8 7 7 8 9 10 9 9 10 10 10 9 8 11 9 7 8 8 8 10 11 10 10 11 11
8 8 8 9 8 7 7 7 7 6 7 6 6 5 4 3 4 3 4 3 3 3 4 4 4 4 3 3 2 2 3 2 2 1 2 2 2 2 2 3 3 3 5 5 4 5 6 6 7 8 8 8 8 8 8 7 8 8 8 9 7 8 9 9 10 10 10 10 10 10 10 11 11 10 7 7 6 8 9 10 11 10 11 12 12
9 10 10 9 8 9 9 8 8 7 6 6 6 6 5 5 3 4 3 3 3 3 4 3 4 4 2 2 1 1 2 2 1 1 2 2 2 3 3 5 5 6 5 5 6 6 6 7 8 8 8 9 9 8 8 8 8 7 8 8 9 9 9 10 10 10 10 10 11 11 11 12 12 7 6 6 7 9 9 10 11 11 11 11 11
11 11 11 13 11 9 8 8 7 8 8 7 7 6 5 5 4 4 4 3 3 3 3 3 3 3 2 2 1 1 1 1 1 1 2 3 4 6 6 4 4 5 6 5 6 6 6 7 7 7 7 8 8 8 8 8 8 8 8 7 10 10 10 10 10 10 10 10 10 11 12 12 10 4 6 7 11 12 11 11 12 12 12 12 13
15 14 12 9 9 10 10 9 8 8 7 7 7 7 6 6 5 3 3 4 3 3 2 2 3 3 3 2 2 1 1 0 0 2 3 3 4 4 3 3 4 4 4 5 5 5 6 5 6 7 7 8 8 8 8 8 8 8 10 11 11 11 10 9 9 10 10 10 10 9 11 12 10 6 8 10 11 13 12 13 12 12 12 13 13
11 11 13 14 12 10 10 9 9 9 8 7 7 8 8 7 7 4 3 3 3 3 3 3 3 4 3 4 3 2 1 1 1 2 2 2 2 2 2 2 3 4 4 5 5 6 6 5 6 6 7 7 7 7 8 7 8 11 11 11 11 11 11 11 11 11 10 10 9 9 9 11 10 7 9 12 10 11 12 13 12 12 12 14 13
14 14 14 13 13 12 11 10 10 9 10 9 7 7 6 5 5 5 5 5 4 4 3 3 3 3 4 3 3 2 1 1 2 2 2 1 2 2 2 3 3 3 4 4 4 5 5 6 7 7 7 7 7 8 6 8 11 12 12 11 11 11 11 11 11 11 10 10 9 9 9 9 12 15 17 16 18 17 12 12 13 12 13 13 14
15 14 13 13 13 12 12 11 10 11 11 10 9 8 8 8 7 6 6 4 5 4 4 4 4 4 4 3 3 2 2 2 1 1 1 1 2 2 2 3 3 3 3 3 4 4 4 6 6 7 7 7 7 6 10 19 17 12 12 11 11 11 11 11 11 11 11 10 10 10 11 18 17 13 13 17 21 20 19 14 13 13 13 14 14
13 13 14 14 13 13 12 12 13 13 13 12 11 9 8 8 7 7 6 5 5 5 4 4 5 5 5 5 3 2 2 0 1 2 1 1 2 2 2 2 3 3 4 4 5 5 5 6 6 7 8 7 7 7 17 18 19 20 14 12 12 11 11 11 10 10 11 12 11 12 11 12 12 11 12 20 20 21 19 20 21 21 18 15 15
17 16 15 15 15 15 16 16 15 14 13 11 10 9 8 9 7 7 6 5 6 5 6 6 6 5 5 4 3 2 1 2 2 1 0 0 1 2 2 3 3 4 5 5 5 5 6 6 6 6 7 7 7 12 17 18 19 20 18 13 12 11 10 10 9 10 10 10 12 11 11 9 9 12 13 11 15 19 20 21 22 21 21 22 21
19 19 19 19 18 18 17 15 13 12 12 12 11 10 10 9 9 8 6 7 7 7 7 6 5 4 4 3 3 2 2 2 2 1 0 1 2 3 3 4 5 5 5 5 6 6 6 6 6 7 8 8 8 13 17 19 19 20 20 17 11 11 10 10 10 11 11 11 11 11 11 10 10 17 14 12 13 14 18 22 22 22 22 22 22
18 18 19 18 15 12 12 14 14 13 13 11 11 12 10 9 9 7 8 8 7 7 6 5 4 4 4 4 3 3 3 2 1 0 0 1 2 3 3 3 4 4 5 5 6 6 6 6 6 7 7 8 8 12 17 19 19 20 20 18 11 11 10 10 11 11 11 11 11 11 11 11 11 12 12 13 14 14 14 14 14 15 14 17 22
17 16 15 15 15 14 13 12 12 13 11 10 9 9 8 7 8 9 8 8 6 6 5 5 5 4 4 5 4 4 3 2 0 0 0 1 2 2 3 3 3 4 5 5 5 6 6 6 7 7 7 8 7 15 17 19 19 21 21 17 10 10 10 10 10 10 11 12 12 11 11 12 13 13 12 15 15 15 14 13 15 16 15 14 12
17 19 18 18 17 18 18 17 13 12 11 11 11 9 9 9 7 9 8 7 6 6 6 5 5 5 5 5 5 4 3 2 1 0 0 2 2 2 1 2 2 4 4 4 5 4 6 7 7 8 8 8 8 15 17 19 21 20 21 11 10 11 11 11 11 11 11 11 11 11 12 13 14 14 16 22 19 16 14 15 16 15 15 12 7
17 18 19 19 18 17 16 13 11 12 12 11 10 9 9 8 9 7 8 7 7 7 6 6 6 6 6 6 5 4 3 2 2 1 1 2 2 1 1 1 2 4 5 4 4 4 5 6 7 7 8 8 9 13 18 19 20 21 16 11 11 10 10 11 11 12 11 11 11 11 12 13 14 14 18 22 22 21 15 14 15 17 12 8 10
15 14 13 13 12 11 9 12 13 13 13 11 10 11 10 9 9 8 8 7 8 8 7 7 7 7 7 7 6 5 4 3 2 2 2 2 1 1 1 0 2 4 4 4 4 5 6 5 7 7 7 9 9 12 18 19 19 20 17 12 10 11 11 11 12 11 11 10 12 18 17 14 15 14 20 23 24 21 15 15 13 10 11 12 11
14 15 15 14 13 14 13 11 12 13 12 11 11 12 11 10 9 9 9 9 9 9 8 8 8 7 7 7 6 5 4 4 3 3 2 3 2 2 1 1 2 3 5 4 4 5 6 5 5 7 10 10 9 11 16 18 19 19 15 11 11 10 12 12 11 12 12 11 12 13 18 17 16 18 23 24 26 22 13 10 8 9 12 12 12
12 11 13 14 13 12 10 13 14 15 13 13 12 11 12 11 10 9 9 11 11 11 9 7 7 7 7 6 5 6 5 4 4 3 3 2 1 1 2 2 3 3 4 5 4 4 6 6 6 6 6 7 9 10 11 18 18 18 18 12 10 10 11 13 12 12 13 12 12 12 14 17 20 22 24 25 25 23 14 10 8 9 12 15 15
14 14 12 11 11 15 17 18 16 13 12 12 12 12 12 11 10 9 12 13 10 7 7 7 6 7 6 6 5 6 6 4 4 4 3 2 1 2 2 2 2 3 3 4 5 4 5 6 5 5 6 7 7 10 11 18 18 18 19 17 10 11 12 12 13 13 12 12 12 12 11 16 22 24 25 26 23 22 22 13 9 11 15 20 25
9 12 14 13 13 13 13 12 12 13 14 13 13 13 12 11 10 12 14 10 7 7 7 7 7 7 7 6 6 5 5 5 4 4 3 2 1 1 2 1 2 3 4 5 4 3 4 5 4 6 6 7 8 11 11 15 17 18 19 21 12 11 13 13 13 13 13 12 13 12 12 17 24 25 26 23 23 23 23 11 13 23 28 29 18
12 10 12 14 13 14 15 16 12 12 12 13 14 14 13 11 12 15 10 7 8 7 8 7 7 7 7 7 6 6 5 5 4 3 3 2 1 1 2 1 2 3 4 5 4 4 3 5 5 4 5 6 7 8 13 12 16 19 21 20 20 17 21 15 13 13 13 13 12 13 14 21 25 25 21 22 22 23 17 13 24 24 24 24 16
11 14 14 14 13 13 13 12 11 12 12 13 15 15 13 13 16 12 7 7 8 8 8 8 7 7 7 6 5 5 5 4 4 3 2 2 2 2 2 2 3 3 3 4 4 3 3 4 6 7 6 5 6 7 9 14 15 20 20 20 21 22 22 15 13 13 14 14 14 14 15 27 25 21 21 20 19 18 14 21 21 22 21 17 9
14 14 13 14 15 15 13 11 11 13 12 13 13 15 14 15 13 8 9 10 9 8 8 7 7 6 6 6 5 5 5 4 4 4 3 3 2 2 3 2 2 2 3 3 4 3 4 5 5 7 7 7 6 6 7 11 19 19 19 20 22 24 23 23 15 11 13 14 19 28 28 20 17 17 19 18 13 14 18 19 19 19 16 6 7
7 8 11 13 11 11 13 14 12 12 12 12 12 13 16 17 10 9 9 10 9 9 8 8 7 6 7 6 6 4 4 4 4 4 4 4 4 3 3 4 2 3 3 3 4 3 4 4 6 6 7 7 7 7 9 9 10 12 14 20 24 23 23 22 21 18 25 29 28 17 11 13 13 13 10 7 7 8 14 16 16 14 7 6 6
13 13 11 10 9 11 13 13 14 11 11 11 12 12 13 9 9 9 9 9 9 10 9 7 8 7 5 6 6 5 4 3 3 3 3 3 3 3 3 4 3 3 4 4 4 4 4 4 5 7 8 9 7 7 7 7 7 9 10 12 11 11 15 19 15 11 15 8 5 6 8 12 11 15 13 11 10 10 7 6 5 5 6 6 6
10 9 12 11 12 13 14 14 15 13 11 11 11 12 10 8 7 9 9 9 9 10 10 8 8 7 6 6 6 6 6 5 4 5 4 3 2 3 4 5 4 5 4 5 4 5 5 6 6 8 9 9 9 9 8 7 8 9 9 8 8 9 10 8 10 11 6 4 4 6 8 5 5 7 6 4 5 4 5 7 6 6 6 7 8
11 10 11 14 13 14 15 15 14 11 12 11 11 10 9 9 9 9 10 11 10 8 8 6 6 6 6 6 6 6 5 5 4 4 4 4 4 4 5 5 4 5 5 5 5 7 7 8 8 6 7 8 7 7 7 13 15 19 17 13 10 9 9 10 13 23 6 3 4 6 5 8 6 7 7 6 6 6 6 6 7 7 7 7 7
9 9 12 13 14 16 15 15 13 11 11 11 11 10 9 8 8 9 11 11 10 8 7 7 7 7 6 6 5 5 4 4 5 5 4 3 4 7 7 5 5 8 13 15 12 7 7 6 6 7 7 7 7 10 21 25 23 23 24 25 23 25 24 20 24 22 7 6 5 8 7 7 9 7 7 7 7 7 7 8 7 8 8 8 8
10 10 10 13 13 12 12 13 12 10 11 11 11 10 9 9 10 10 12 11 10 9 8 7 7 7 7 7 6 5 5 4 4 5 3 3 4 5 8 12 12 10 11 12 14 16 17 16 12 8 10 19 20 22 22 23 24 24 24 24 24 24 25 26 22 11 8 7 8 9 9 7 7 7 6 7 7 7 8 8 8 7 7 8 9
Wind_Direction
57 48 48 13 12 17 20 28 38 40 39 36 35 37 37 35 36 39 27 24 34 28 32 37 41 48 55 53 59 51 49 51 50 47 47 47 40 40 37 34 31 24 25 27 28 27 25 19 22 20 19 21 23 23 15 13 12 8 1 1 0 1 5 5 359 344 343 347 345 336 330 332 303 341 36 8 352 335 323 320 315 322 318 318 314
46 44 39 32 22 20 25 27 28 40 31 34 37 35 35 33 40 37 26 28 33 30 30 41 41 44 57 63 66 56 51 47 49 44 45 43 42 37 35 31 30 28 21 26 28 24 21 18 20 16 19 23 23 20 19 17 13 13 5 9 14 7 6 4 1 354 14 355 332 329 326 328 325 13 19 357 337 320 326 327 335 339 336 329 328
45 48 40 32 26 23 33 34 31 35 38 38 33 37 35 33 32 35 30 34 34 31 31 39 41 50 57 55 57 71 61 57 55 49 43 42 40 37 33 30 28 28 20 20 27 23 20 16 18 13 20 21 18 20 19 18 16 14 11 8 359 15 8 6 8 11 345 336 303 297 342 336 347 358 360 337 320 313 338 340 354 351 339 336 342
49 43 42 36 33 32 36 36 35 37 38 36 36 38 37 35 31 33 32 31 32 32 32 34 48 55 60 70 67 66 65 60 58 49 44 39 38 35 33 31 29 30 23 19 27 26 24 21 16 17 19 22 21 19 15 17 13 12 11 8 8 1 8 6 12 3 356 360 7 352 302 331 328 4 339 324 295 355 339 343 353 341 330 347 348
54 51 46 41 38 36 38 38 35 39 37 37 36 38 37 35 35 32 35 31 33 34 35 34 47 56 61 64 70 77 69 63 52 42 36 34 36 34 32 29 31 32 26 21 22 27 24 20 20 16 17 24 24 24 21 17 12 11 7 6 16 7 355 358 4 9 1 21 348 347 340 350 347 321 328 307 27 338 335 349 340 331 339 351 342
59 56 51 46 48 45 42 40 39 36 36 35 39 40 41 37 36 37 37 33 27 28 35 42 49 58 62 57 41 34 35 28 31 24 23 25 28 28 34 32 31 33 30 24 20 28 26 23 22 20 20 26 25 24 20 13 13 11 9 6 12 6 358 352 355 7 358 8 13 35 40 335 327 320 326 311 329 306 330 333 325 329 350 340 331
59 61 53 51 46 48 46 42 37 38 36 35 42 42 40 40 42 42 41 39 31 28 32 42 51 49 53 59 58 54 59 51 41 36 34 30 28 28 31 31 30 30 29 25 22 24 27 24 22 22 23 27 25 23 21 18 12 10 4 10 13 360 7 7 360 347 354 20 27 12 357 329 299 313 319 315 320 331 346 330 327 343 336 330 324
51 52 52 53 50 48 48 48 43 43 35 34 42 43 39 38 40 42 42 41 37 31 35 40 49 48 55 60 63 62 60 57 43 39 37 35 32 30 28 30 29 29 29 25 21 22 26 25 21 22 23 25 26 24 20 15 15 9 8 9 13 5 12 10 354 352 355 349 7 358 348 319 310 296 292 313 309 311 317 319 308 327 324 322 324
80 74 67 59 59 55 59 57 53 50 43 43 44 48 45 42 46 47 47 45 40 42 44 44 54 54 58 61 65 61 61 57 50 45 41 35 39 33 33 31 28 28 29 27 21 22 25 24 20 22 22 22 25 19 18 16 13 7 7 11 15 6 12 6 356 350 347 6 351 350 346 341 328 320 315 341 323 313 303 332 329 325 321 319 339
84 87 84 76 68 66 65 68 62 52 50 48 50 48 46 44 47 48 50 48 47 47 49 48 49 55 58 56 63 61 56 54 51 46 41 34 39 33 31 29 25 24 26 25 22 21 21 21 22 21 21 21 22 15 15 15 12 9 9 10 10 9 7 4 359 341 2 10 0 339 344 340 343 352 349 341 326 305 311 319 331 327 324 322 332
121 98 80 73 60 65 63 67 65 61 53 49 48 48 46 51 49 53 50 50 49 50 51 52 50 50 57 56 57 59 54 53 49 44 39 37 36 31 29 26 21 25 22 22 24 18 20 22 22 18 20 20 16 14 17 12 8 6 5 9 11 5 2 355 352 347 12 3 355 347 339 345 350 337 334 340 337 328 321 313 317 318 309 309 320
121 115 99 92 98 86 75 72 74 69 63 57 55 53 53 51 54 59 52 50 49 51 53 52 53 53 53 54 59 54 53 51 48 45 34 36 32 29 23 23 23 20 20 19 21 14 17 17 19 16 18 14 16 11 11 9 4 2 7 9 6 1 357 355 344 348 14 359 350 340 331 344 344 336 336 334 334 328 322 313 317 323 305 288 309
151 152 151 150 135 128 112 92 80 70 67 63 60 57 58 56 57 64 59 50 51 51 56 55 55 52 51 51 51 53 51 50 47 45 35 34 29 27 23 23 15 17 16 16 13 10 12 12 13 13 13 11 11 9 7 5 3 1 5 6 2 357 358 347 346 2 7 354 339 328 331 345 340 336 335 332 330 323 324 317 315 320 311 311 318
165 159 162 163 151 141 128 113 91 84 79 73 66 62 53 55 57 66 65 55 56 55 55 58 54 52 49 49 49 49 48 47 46 44 35 35 31 29 28 22 18 17 10 16 5 4 9 11 9 10 11 8 10 8 6 5 2 1 1 3 359 349 349 346 353 2 351 343 332 321 344 344 338 339 333 334 331 331 327 327 320 317 311 307 313
172 170 171 162 156 145 133 116 102 86 86 77 76 68 61 56 54 59 64 55 55 53 53 56 54 50 49 49 46 49 52 45 45 44 37 34 29 30 29 24 21 13 11 10 1 6 2 7 8 7 7 6 5 6 4 1 360 358 1 1 354 347 347 346 352 353 345 338 332 330 344 341 340 338 336 333 329 327 325 326 326 323 321 314 315
174 175 172 161 147 138 128 120 110 102 94 90 83 81 75 73 71 64 65 59 55 56 55 57 56 57 52 50 50 49 52 51 48 45 40 41 34 33 27 24 16 11 7 7 4 5 0 3 4 3 4 4 3 3 2 1 357 358 356 358 355 350 351 349 351 344 336 329 323 339 343 337 340 337 334 329 325 323 323 323 321 318 321 316 323
181 179 168 156 145 142 139 133 128 117 111 108 104 96 95 89 79 73 67 63 61 61 62 59 63 61 56 56 54 53 52 50 47 41 41 37 39 31 29 19 16 14 9 4 2 3 4 4 0 0 2 2 2 0 0 359 357 359 354 356 354 352 352 349 342 334 329 321 337 343 339 335 333 332 329 326 325 322 324 322 318 316 316 309 315
182 170 163 154 148 141 138 139 132 131 128 121 112 104 88 83 78 78 67 64 56 58 58 55 57 58 53 51 48 48 43 42 38 33 29 32 29 24 19 19 12 4 9 1 360 358 1 3 359 354 355 355 356 353 354 353 353 355 350 354 345 346 347 341 335 333 329 335 338 333 333 336 331 331 327 325 324 324 320 319 317 314 311 307 308
176 172 163 157 151 145 142 139 134 126 126 124 119 110 93 76 71 71 72 64 61 61 63 56 54 59 57 50 48 43 42 39 39 33 33 33 27 22 19 10 3 3 8 358 357 356 355 354 354 346 350 349 349 351 349 349 348 348 348 347 337 341 334 334 325 334 335 339 332 330 331 334 331 329 325 319 318 320 320 320 323 327 324 317 310
176 171 165 156 153 148 147 144 143 140 134 131 121 105 90 79 79 78 71 70 66 60 62 65 60 67 67 65 57 55 47 44 36 36 32 35 23 21 12 15 4 354 4 356 359 357 356 355 353 351 352 352 351 351 351 350 347 350 345 342 340 337 334 332 330 336 331 332 328 333 333 330 323 316 315 319 321 325 336 339 334 329 322 318 312
176 169 161 155 152 147 145 143 137 126 123 124 123 117 116 104 90 86 91 80 72 69 73 73 71 62 61 52 43 40 35 33 35 33 32 24 17 13 14 7 354 7 360 357 360 354 352 348 346 346 347 344 344 344 345 343 344 340 341 336 334 333 329 328 332 334 332 334 331 329 325 318 309 309 316 320 331 342 341 337 336 328 319 315 312
171 164 157 153 150 146 138 134 134 130 134 132 129 124 125 123 116 105 91 69 89 59 71 76 68 64 61 52 44 36 30 24 31 28 26 23 9 9 352 0 1 351 0 342 343 345 343 340 337 338 339 337 338 338 338 339 335 334 331 331 325 319 317 322 333 332 331 330 329 324 321 310 306 313 317 330 343 343 340 335 327 319 311 307 306
167 161 155 154 156 156 155 155 154 152 150 143 144 143 140 135 134 141 117 109 101 94 85 87 84 80 74 69 63 48 30 32 32 25 21 14 5 356 348 357 338 337 340 347 341 338 338 337 340 341 340 339 339 337 336 336 333 330 328 322 319 315 330 336 334 330 329 327 325 321 317 308 307 311 319 338 345 340 338 327 315 308 300 297 296
161 154 153 158 159 153 153 157 155 154 154 156 153 146 149 158 160 151 127 121 99 90 95 95 104 93 86 74 67 57 43 35 35 15 14 359 357 340 322 347 343 350 350 343 345 346 345 348 345 343 342 338 338 337 334 333 329 327 323 319 313 329 333 332 329 326 325 325 321 318 315 312 312 317 330 335 340 335 330 317 307 300 298 302 302
159 160 162 160 161 167 170 167 166 163 159 157 157 161 167 169 167 151 146 134 109 106 96 97 103 108 107 105 90 86 60 34 31 16 3 355 352 2 6 9 357 353 351 350 353 355 351 350 348 341 338 338 335 332 331 329 325 320 316 311 325 331 331 327 325 321 320 320 319 316 315 315 315 329 338 340 339 331 322 313 304 304 308 308 307
166 166 167 175 176 173 169 171 170 167 166 165 165 167 169 168 174 165 149 131 121 98 102 106 126 141 163 154 145 103 55 359 352 349 359 12 15 10 3 352 349 344 348 355 351 345 347 338 338 334 332 329 328 327 327 323 321 318 314 319 328 328 326 324 319 319 317 314 315 317 315 315 317 344 329 330 328 329 324 312 308 311 313 310 306
176 175 176 169 174 178 178 175 173 172 171 170 168 172 173 169 170 166 151 144 147 134 133 149 167 171 175 174 179 199 194 257 27 15 19 18 12 354 338 331 336 347 346 346 343 339 335 334 328 332 332 329 328 327 325 324 319 321 329 330 328 325 322 319 317 315 313 311 312 313 315 312 310 317 321 324 334 331 318 311 311 315 314 309 307
173 176 178 181 180 179 180 178 174 176 175 171 175 176 174 172 171 173 163 156 157 152 173 181 176 183 182 189 203 200 192 79 49 36 26 13 341 316 314 325 339 349 347 342 340 336 331 332 331 333 329 328 327 327 325 321 323 331 330 328 326 322 320 317 315 314 314 313 313 313 308 300 295 300 313 324 330 319 313 308 312 313 312 308 308
181 186 183 179 180 184 182 180 180 173 176 177 177 181 175 173 173 174 170 180 168 164 186 186 186 190 197 191 189 177 142 101 52 36 0 324 304 302 321 340 351 343 342 334 335 335 335 338 337 334 333 335 333 330 323 327 330 330 328 325 322 319 316 315 314 313 313 314 313 305 295 289 298 304 311 318 320 317 310 308 309 309 308 307 307
187 186 184 184 184 183 185 180 180 180 180 180 182 183 181 178 183 180 178 181 153 179 182 187 191 206 195 179 168 154 135 61 54 330 260 267 290 321 332 345 348 337 329 335 332 336 341 339 337 334 335 333 330 324 324 329 330 329 327 322 318 315 316 314 313 314 314 313 309 303 304 306 311 321 328 326 320 316 310 304 303 305 307 307 307
188 187 187 188 187 187 184 185 186 186 185 183 186 183 178 182 180 178 180 173 163 178 186 184 201 200 182 164 149 130 90 101 235 236 232 272 330 338 341 339 343 335 340 339 330 332 338 338 336 333 330 327 323 317 324 329 328 328 326 320 318 316 314 314 313 315 314 312 310 308 306 311 315 316 320 322 321 315 310 306 304 303 303 305 307
191 190 188 189 190 189 189 191 190 188 185 183 183 179 177 188 181 181 179 164 173 182 184 196 198 176 156 145 130 124 159 212 221 228 241 297 330 344 343 341 333 346 346 336 340 339 335 336 333 330 324 318 315 316 324 325 326 326 325 323 318 315 315 314 314 313 310 310 311 312 311 312 315 315 320 324 317 311 308 305 303 302 304 306 305
190 191 192 193 193 193 192 191 187 187 186 189 178 174 187 184 181 185 163 171 182 185 189 194 183 145 141 146 146 167 196 209 221 214 259 352 357 346 348 347 344 342 337 339 333 333 333 332 334 329 323 318 311 316 321 324 324 323 323 323 318 317 316 312 312 311 311 312 314 313 312 311 310 314 316 317 313 309 305 303 303 304 305 307 306
194 194 194 195 194 193 193 191 189 188 188 182 179 183 186 180 176 167 174 180 180 188 191 184 157 148 157 166 171 186 199 209 211 200 18 2 345 334 336 329 333 334 335 325 323 322 321 329 327 322 316 311 310 310 318 319 320 321 323 325 324 320 313 311 311 311 309 310 311 310 309 312 315 316 314 311 308 304 299 299 303 306 305 303 300
193 195 198 195 194 191 189 190 191 187 183 172 183 183 168 168 170 174 182 178 183 185 192 172 160 163 167 176 184 191 198 203 200 126 354 321 312 307 325 326 336 324 318 314 315 316 320 322 319 317 310 306 303 309 315 317 318 323 326 330 324 318 314 310 310 307 307 306 305 304 309 312 313 310 306 304 304 303 303 305 307 307 304 295 302
196 194 195 192 192 192 190 193 187 177 178 178 182 174 167 180 172 178 178 183 181 188 191 170 169 174 180 186 186 188 190 174 183 184 246 292 285 299 309 329 331 307 298 303 303 309 314 317 313 310 308 304 302 309 313 317 321 325 328 329 322 317 315 312 309 309 306 303 302 305 307 308 307 305 303 304 303 303 306 310 309 301 294 299 313
198 195 197 196 193 192 193 182 174 177 174 184 175 168 172 165 174 183 178 184 182 193 194 182 183 184 186 189 184 183 177 172 175 188 239 243 256 268 298 343 310 300 304 305 307 316 311 308 308 308 308 308 306 309 314 319 322 325 327 323 320 316 313 312 309 306 304 302 305 305 307 306 306 303 303 304 307 313 314 307 299 297 308 326 314
197 196 198 194 194 192 182 176 176 179 181 176 168 169 169 172 181 181 181 190 191 203 194 186 190 188 188 185 183 170 171 171 177 208 220 230 226 257 245 261 298 300 298 299 307 303 300 301 303 302 307 308 305 309 316 318 321 322 324 321 318 316 312 310 306 305 305 305 307 307 307 305 301 300 303 311 316 316 306 307 313 329 328 315 309
193 189 190 188 188 185 179 176 176 181 184 171 167 168 170 181 184 185 188 192 204 204 193 192 192 187 184 179 173 166 166 173 190 208 203 211 234 240 241 275 261 279 286 292 297 294 294 295 294 300 302 304 304 308 314 316 318 320 321 318 317 315 311 307 308 308 307 306 305 306 306 302 301 305 312 314 312 310 315 326 335 332 320 316 316
191 193 192 188 178 164 170 181 185 191 173 169 166 170 179 184 190 181 189 204 208 203 194 187 180 179 177 170 166 164 169 173 193 199 195 199 197 239 278 273 281 277 280 290 286 285 289 292 299 297 301 305 307 305 308 313 316 316 318 318 316 313 309 308 307 308 308 308 308 305 303 304 309 311 310 309 310 323 333 341 348 332 323 316 320
183 188 175 173 178 182 185 187 191 180 170 169 166 171 185 190 184 183 202 212 205 184 179 179 172 170 170 169 165 165 170 177 177 193 188 177 189 235 273 277 283 287 284 285 285 287 289 289 292 291 295 299 298 302 304 312 313 313 314 318 312 309 307 306 306 307 310 309 305 302 302 309 309 307 306 308 321 329 334 343 339 325 315 314 317
187 177 172 176 178 188 192 194 188 175 169 168 169 179 189 187 185 200 211 204 172 175 173 167 169 172 170 167 165 164 163 170 169 159 174 201 213 203 256 265 272 275 283 285 291 291 287 290 292 295 293 294 297 301 301 305 309 311 313 312 310 303 306 307 307 306 304 301 301 305 309 307 305 303 305 320 329 331 334 340 321 316 317 319 325
171 177 187 176 180 188 191 191 182 175 170 171 172 182 188 188 196 210 203 170 174 169 168 167 168 171 172 170 167 164 167 162 171 169 171 219 219 241 257 246 245 267 274 282 288 292 294 296 299 294 294 297 299 295 300 303 307 310 309 308 306 307 308 308 304 299 299 301 307 304 301 299 297 309 324 329 329 331 334 321 319 321 321 327 341
189 184 179 179 186 188 190 188 179 175 173 174 175 184 188 191 208 205 165 165 166 171 161 166 172 175 169 170 168 168 169 166 164 162 169 197 246 253 262 235 238 247 264 282 288 294 301 303 306 306 303 297 294 290 290 299 306 307 307 306 307 307 307 301 298 297 302 301 301 298 290 297 314 327 328 328 330 332 325 323 325 325 329 337 333
184 188 182 182 185 186 187 184 183 178 178 178 182 183 187 199 208 165 172 168 169 162 165 171 176 175 173 169 162 166 168 165 167 158 182 203 232 228 259 251 210 261 267 278 285 299 298 299 299 298 301 299 292 287 282 293 304 307 306 306 305 306 304 305 303 299 296 293 293 296 305 319 327 331 331 335 335 330 327 326 326 328 334 326 322
185 183 181 188 188 185 181 185 186 184 181 181 187 184 188 205 184 169 170 167 159 162 171 181 175 174 174 161 161 168 166 170 171 176 188 195 203 222 247 269 256 259 258 271 284 290 285 285 287 287 293 298 296 288 289 284 283 300 302 298 298 300 303 301 300 298 298 297 299 314 343 339 345 338 335 332 324 322 322 324 324 325 318 314 307
190 193 174 181 181 183 189 188 189 190 186 186 188 195 199 186 168 169 163 161 163 169 176 173 179 174 166 162 172 175 179 183 186 193 191 191 195 207 234 262 253 256 269 264 272 275 278 274 273 287 295 297 288 283 282 281 288 290 285 280 275 271 283 297 294 284 290 307 1 5 338 335 332 329 328 325 320 320 318 309 310 310 309 304 303
196 180 178 180 183 188 191 191 196 189 188 187 191 196 194 174 165 161 159 157 167 174 178 182 179 174 171 175 179 180 179 186 196 182 199 214 215 194 214 240 239 238 242 266 261 266 269 273 276 285 282 278 285 288 291 294 292 283 283 292 290 291 292 285 296 294 313 47 352 350 340 326 324 324 325 315 306 301 304 315 312 312 305 301 302
182 183 179 187 189 194 195 193 197 185 186 188 193 195 185 174 168 161 157 163 175 179 176 171 170 163 179 177 180 180 187 186 194 194 209 199 199 217 222 251 237 194 209 226 252 260 262 269 270 256 269 281 289 299 299 302 302 311 312 309 306 303 306 303 305 312 358 11 3 334 349 336 338 328 324 323 319 319 317 312 310 310 308 309 311
196 180 186 192 195 195 193 196 199 180 183 188 191 191 185 178 162 163 162 169 172 170 170 177 171 177 175 170 180 182 178 185 186 204 224 279 237 221 220 218 254 248 239 244 248 242 249 255 271 278 293 298 305 303 309 313 313 311 311 311 312 311 312 312 312 327 47 350 352 332 330 336 325 330 321 321 317 316 313 314 310 310 310 309 306
182 178 194 201 203 200 198 199 193 175 183 188 189 186 178 176 169 169 171 173 164 169 177 176 172 186 181 181 175 181 186 183 190 188 203 243 296 292 274 272 273 276 281 280 280 285 292 297 300 303 307 306 306 309 311 311 312 314 314 315 315 316 316 318 325 349 3 4 343 334 325 326 320 312 309 307 312 311 310 308 307 306 299 302 304